This is the latest recevied weather packets stored in our database for station/object KC1TEM-13. If no packets are shown the sender has not sent any weather packets the latest 1 day(s).
| Time | Temp. | Humidity | Pressure | Rain* | Wind** | Luminosity | Snow |
|---|---|---|---|---|---|---|---|
| 1778031079 | 21.11° C | 48% | 1009.4 hPa | 0 mm | 0.89 m/s, 179° | 0 W/m² | - |
| 1778030776 | 21.11° C | 47% | 1009.5 hPa | 0 mm | 0.89 m/s, 171° | 0 W/m² | - |
| 1778030472 | 21.11° C | 47% | 1009.5 hPa | 0 mm | 0 m/s | 0 W/m² | - |
| 1778030170 | 21.11° C | 47% | 1009.5 hPa | 0 mm | 0.89 m/s, 285° | 0 W/m² | - |
| 1778029866 | 21.11° C | 47% | 1009.3 hPa | 0 mm | 0 m/s | 0 W/m² | - |
| 1778029566 | 21.67° C | 46% | 1008.8 hPa | 0 mm | 1.79 m/s, 241° | 0 W/m² | - |
| 1778029262 | 21.67° C | 46% | 1008.7 hPa | 0 mm | 0.89 m/s, 197° | 0 W/m² | - |
| 1778028959 | 21.67° C | 46% | 1008.5 hPa | 0 mm | 0.89 m/s, 155° | 0 W/m² | - |
| 1778028655 | 21.67° C | 46% | 1008.4 hPa | 0 mm | 3.13 m/s, 211° | 0 W/m² | - |
| 1778028352 | 21.67° C | 47% | 1008.3 hPa | 0 mm | 0.89 m/s, 242° | 0 W/m² | - |
| 1778028049 | 21.67° C | 47% | 1008.1 hPa | 0 mm | 0.89 m/s, 189° | 0 W/m² | - |
| 1778027745 | 21.67° C | 47% | 1008.1 hPa | 0 mm | 1.34 m/s, 206° | 0 W/m² | - |
| 1778027442 | 21.67° C | 46% | 1007.8 hPa | 0 mm | 0 m/s | 0 W/m² | - |
| 1778027137 | 21.67° C | 46% | 1007.9 hPa | 0 mm | 1.34 m/s, 212° | 0 W/m² | - |
| 1778026833 | 22.22° C | 45% | 1007.5 hPa | 0 mm | 1.79 m/s, 205° | 0 W/m² | - |
| 1778026530 | 22.22° C | 45% | 1007.5 hPa | 0 mm | 1.79 m/s, 200° | 0 W/m² | - |
| 1778026227 | 22.22° C | 45% | 1007.4 hPa | 0 mm | 1.34 m/s, 201° | 0 W/m² | - |
| 1778025925 | 22.22° C | 45% | 1007.2 hPa | 0 mm | 0.89 m/s, 197° | 0 W/m² | - |
| 1778025622 | 22.78° C | 44% | 1007.3 hPa | 0 mm | 0.89 m/s, 208° | 0 W/m² | - |
| 1778025320 | 22.78° C | 45% | 1007.4 hPa | 0 mm | 0.89 m/s, 181° | 1 W/m² | - |
| 1778025016 | 22.78° C | 45% | 1007.2 hPa | 0 mm | 0.89 m/s, 188° | 2 W/m² | - |
| 1778024714 | 22.78° C | 45% | 1007 hPa | 0 mm | 0.89 m/s, 168° | 3 W/m² | - |
| 1778024410 | 22.78° C | 45% | 1006.9 hPa | 0 mm | 0.89 m/s, 210° | 6 W/m² | - |
| 1778024108 | 22.78° C | 44% | 1006.8 hPa | 0 mm | 1.79 m/s, 208° | 9 W/m² | - |
| 1778023805 | 23.33° C | 44% | 1006.7 hPa | 0 mm | 0.45 m/s, 192° | 11 W/m² | - |
* Rain latest hour (hover to see other rain measurements)
** Current wind speed in m/s (hover to see current wind gust speed)